Tracking 17150 objects as of 4-August-2015
HD Live streaming from Space Station

AVUM R/B

Track AVUM R/B now!
10-day predictions
AVUM R/B is classified as:


NORAD ID: 38086
Int'l Code: 2012-006K
Perigee: 259.3 km
Apogee: 788.2 km
Inclination: 69.5 °
Period: 95.0 minutes
Semi major axis: 6894 km
RCS: 4.0982 m2 (large)
Launch date: February 13, 2012
Source: European Space Agency (ESA)

Note: This is a ROCKET BODY
Your satellite tracking list
Your tracking list is empty





NASA's NSSDC Master Catalog

Two Line Element Set (TLE):
1 38086U 12006K   15213.87210061  .00068787  44045-5  45269-3 0  9998
2 38086 069.4822 040.4596 0383561 140.4633 332.9182 15.16426858184011

Source of the keplerian elements: AFSPC

N2YO: 379